Home   Weather   Merida   Past weeks
Flag for Mexico

Past Weather in Merida, Yucatán, Mexico — April 2017

Now
64 °F

Clear.


Feels Like: 64 °F
Forecast: 86 / 60 °F
Wind: 7 mph from East

Location: Aerop. Internacional Merida - Yuc

Current Time: Jan 22, 2019 at 2:27:54 am

Latest Report: Jan 22, 2019 at 12:45 am


Visibility: 7 mi

Pressure: 30.13 "Hg

Humidity: 78%

Dew Point: 57 °F

Location of MeridaLocation

April 2017 Weather in Merida — Graph

°F

High & Low Weather Summary for April 2017

 TemperatureHumidityPressure
High104 °F (Apr 3, 2:41 pm)100% (Apr 19, 3:35 pm)30.13 "Hg (Apr 19, 3:35 pm)
Low66 °F (Apr 24, 5:52 am)17% (Apr 26, 4:43 pm)29.54 "Hg (Apr 26, 7:22 am)
Average83 °F63%29.90 "Hg
* Reported Apr 1 12:48 am — Apr 30 11:48 pm, Merida. Weather by CustomWeather, © 2019

Note: Actual official high and low records may vary slightly from our data, if they occured in-between our weather recording intervals... More about our weather records

Advertising

Merida Weather History for April 1, 2017

Scroll right to see more
 ConditionsComfort  
Time TempWeatherWind HumidityBarometerVisibility
12:48 am
Sat, Apr 1
79 °FClear.7 mph84%29.85 "Hg7 mi
1:48 am77 °FClear.5 mph83%29.84 "Hg7 mi
2:48 am77 °FClear.12 mph83%29.85 "Hg7 mi
3:48 am75 °FClear.12 mph89%29.82 "Hg7 mi
4:48 am75 °FClear.13 mph89%29.84 "Hg7 mi
5:48 am75 °FClear.9 mph89%29.86 "Hg6 mi
6:48 am77 °FSunny.13 mph83%29.87 "Hg6 mi
7:48 am81 °FSunny.16 mph74%29.89 "Hg6 mi
8:44 am86 °FSunny.17 mph59%29.89 "Hg6 mi
9:45 am90 °FSunny.13 mph49%29.89 "Hg7 mi
10:45 am95 °FSunny.14 mph41%29.87 "Hg7 mi
11:52 am99 °FSunny.16 mph35%29.85 "Hg7 mi
12:44 pm100 °FScattered clouds.13 mph31%29.82 "Hg7 mi
1:45 pm102 °FScattered clouds.9 mph29%29.78 "Hg7 mi
2:45 pm100 °FScattered clouds.13 mph29%29.76 "Hg7 mi
3:43 pm100 °FScattered clouds.16 mph29%29.75 "Hg7 mi
4:44 pm100 °FPartly sunny.17 mph29%29.75 "Hg7 mi
5:43 pm97 °FPassing clouds.16 mph32%29.77 "Hg7 mi
6:45 pm95 °FClear.17 mph36%29.79 "Hg7 mi
7:46 pm91 °FClear.22 mph41%29.83 "Hg7 mi
8:47 pm88 °FClear.24 mph46%29.85 "Hg7 mi
9:47 pm86 °FClear.18 mph52%29.88 "Hg7 mi
10:50 pm82 °FClear.16 mph62%29.88 "Hg7 mi
11:46 pm81 °FClear.18 mph70%29.88 "Hg7 mi
Weather by CustomWeather, © 2019

See weather overview